• Join FlightAware (Why Join?)
  • Login
  • US Flag 
07:46PM EST


 

Airport Tracker/Info


-or-


 

Live Flight TrackerFlight Track Log ✈ N850UA ✈ 10-Apr-2013 ✈ KLGA - KORD

Flight Track Log - Related Links

Times and Time Zones

All times are in EDT time to prevent confusion due to time zone crossing. See the N850UA flight status page for this flight to view local times or setup timezone preferences in your user account.

Time Position Orientation Groundspeed Altitude Reporting Facility
EDT Latitude Longitude Course Direction KTS MPH feet Rate Location/Type
06:23AM 40.7333 -73.8167 270° West 205 236 2,400  Level New York TRACON
06:24AM 40.7667 -73.7667 49° Northeast 228 262 4,600 2,632 Climbing New York TRACON
06:25AM 40.8167 -74.2174 277° West  Level FlightAware Approximate
06:25AM 40.8167 -73.8000 333° Northwest 219 252 7,400  Level New York TRACON
06:26AM 40.8283 -74.3438 277° West  Level FlightAware Approximate
06:26AM 40.8667 -73.8833 308° West 238 274 11,200  Level New York TRACON
06:27AM 40.8384 -74.4704 275° West  Level FlightAware Approximate
06:27AM 40.8667 -73.9667 270° West 231 266 14,600  Level New York TRACON
06:28AM 40.8475 -74.5972 275° West  Level FlightAware Approximate
06:28AM 40.8167 -74.0333 225° Southwest 269 310 15,000  Level New York TRACON
06:29AM 40.8667 -74.7209 270° West  Level FlightAware Approximate
06:29AM 40.7667 -74.1167 232° Southwest 260 299 15,000  Level New York TRACON
06:30AM 40.7333 -74.2000 242° Southwest 297 342 15,000 600 Level New York TRACON
06:31AM 40.7667 -74.2667 303° West 260 299 16,200 1,000 Climbing New York TRACON
06:32AM 40.8167 -74.3500 308° West 274 315 17,000 333 Climbing New York TRACON
06:34AM 40.8942 -74.4411 318° Northwest 293 337 17,000  Level New York Center
06:35AM 40.9433 -74.5317 306° West 293 337 17,000 645 Level New York Center
06:36AM 40.9294 -74.6408 260° West 299 344 18,300 1,765 Climbing New York Center
06:37AM 40.9103 -74.7742 259° West 330 380 20,500 2,017 Climbing New York Center
06:38AM 40.8892 -74.9047 258° West 355 409 22,300 1,770 Climbing New York Center
06:39AM 40.8656 -75.0406 257° West 370 426 24,100 1,721 Climbing New York Center
06:40AM 40.8442 -75.1708 258° West 394 453 25,800 1,664 Climbing New York Center
06:41AM 40.8200 -75.3119 257° West 399 459 27,400 1,525 Climbing New York Center
06:42AM 40.7956 -75.4611 258° West 412 474 28,800 1,279 Climbing New York Center
06:43AM 40.7728 -75.6131 259° West 418 481 30,000 1,300 Climbing New York Center
06:44AM 40.7456 -75.7672 257° West 430 495 31,400 1,627 Climbing New York Center
06:45AM 40.7178 -75.9294 257° West 425 489 33,200 1,289 Climbing New York Center
06:46AM 40.6975 -76.0567 258° West 425 489 34,000 347 Climbing New York Center
06:47AM 40.6742 -76.2025 258° West 420 483 33,900 -50 Descending New York Center
06:48AM 40.6800 -76.3481 273° West 408 470 33,900  Level New York Center
06:49AM 40.7022 -76.4922 282° West 397 457 33,900  Level New York Center
06:50AM 40.7222 -76.6364 280° West 402 463 33,900 51 Level New York Center
06:51AM 40.7425 -76.7750 281° West 402 463 34,000  Climbing New York Center
06:52AM 40.7639 -76.9222 281° West 402 463 33,900  Descending New York Center
06:53AM 40.7878 -77.0669 282° West 402 463 34,000 793 Climbing New York Center
06:54AM 40.8072 -77.2086 280° West 402 463 35,500 984 Climbing New York Center
06:55AM 40.8267 -77.3475 281° West 397 457 36,000 200 Climbing New York Center
06:56AM 40.8461 -77.4839 281° West 392 451 35,900  Descending New York Center
06:58AM 40.8878 -77.7897 280° West 392 451 36,000 33 Climbing Cleveland Center
06:59AM 40.9078 -77.9317 281° West 392 451 36,000  Level Cleveland Center
07:00AM 40.9256 -78.0686 280° West 392 451 36,000 -50 Level Cleveland Center
07:01AM 40.9411 -78.2108 278° West 392 451 35,900 -50 Descending Cleveland Center
07:02AM 40.9628 -78.3558 281° West 392 451 35,900 50 Level Cleveland Center
07:03AM 40.9800 -78.4983 279° West 392 451 36,000 50 Climbing Cleveland Center
07:04AM 40.9972 -78.6436 279° West 397 457 36,000  Level Cleveland Center
07:05AM 41.0142 -78.7889 279° West 397 457 36,000 -50 Level Cleveland Center
07:06AM 41.0308 -78.9317 279° West 397 457 35,900  Descending Cleveland Center
07:07AM 41.0475 -79.0744 279° West 402 463 36,000 50 Climbing Cleveland Center
07:08AM 41.0639 -79.2200 279° West 402 463 36,000 -50 Level Cleveland Center
07:09AM 41.0800 -79.3656 278° West 402 463 35,900 -50 Descending Cleveland Center
07:10AM 41.0961 -79.4975 279° West 409 471 35,900  Level Cleveland Center
07:11AM 41.1119 -79.6406 278° West 409 471 35,900  Level Cleveland Center
07:12AM 41.1275 -79.7864 278° West 409 471 35,900 50 Level Cleveland Center
07:13AM 41.1431 -79.9517 277° West 414 476 36,000 50 Climbing Cleveland Center
07:14AM 41.1606 -80.0839 280° West 409 471 36,000 -50 Level Cleveland Center
07:15AM 41.1756 -80.2300 278° West 409 471 35,900 -50 Descending Cleveland Center
07:16AM 41.1906 -80.3928 277° West 409 471 35,900  Level Cleveland Center
07:17AM 41.2033 -80.5389 277° West 404 465 35,900  Level Cleveland Center
07:18AM 41.2200 -80.6853 279° West 404 465 35,900  Level Cleveland Center
07:19AM 41.2322 -80.8206 277° West 409 471 35,900  Level Cleveland Center
07:20AM 41.2464 -80.9697 277° West 409 471 35,900 50 Level Cleveland Center
07:21AM 41.2478 -81.1161 271° West 403 464 36,000 50 Climbing Cleveland Center
07:22AM 41.2492 -81.2653 271° West 403 464 36,000  Level Cleveland Center
07:23AM 41.2544 -81.4144 273° West 403 464 36,000 -50 Level Cleveland Center
07:24AM 41.2553 -81.5608 270° West 403 464 35,900 -50 Descending Cleveland Center
07:25AM 41.2539 -81.7128 269° West 403 464 35,900  Level Cleveland Center
07:26AM 41.2567 -81.8592 271° West 403 464 35,900  Level Cleveland Center
07:27AM 41.2547 -82.0139 269° West 403 464 35,900 50 Level Cleveland Center
07:28AM 41.2547 -82.1714 270° West 415 478 36,000 50 Climbing Cleveland Center
07:29AM 41.2547 -82.3231 270° West 421 484 36,000 -50 Level Cleveland Center
07:30AM 41.2542 -82.4750 270° West 421 484 35,900 -50 Descending Cleveland Center
07:31AM 41.2536 -82.6297 270° West 421 484 35,900  Level Cleveland Center
07:32AM 41.2531 -82.7844 270° West 421 484 35,900  Level Cleveland Center
07:33AM 41.2519 -82.9392 270° West 421 484 35,900 -650 Level Cleveland Center
07:34AM 41.2525 -83.1075 270° West 421 484 34,600 -1,000 Descending Cleveland Center
07:35AM 41.2489 -83.2622 268° West 421 484 33,900 -350 Descending Cleveland Center
07:36AM 41.2472 -83.4194 269° West 421 484 33,900  Level Cleveland Center
07:37AM 41.2475 -83.5742 270° West 421 484 33,900 50 Level Cleveland Center
07:38AM 41.2456 -83.7233 269° West 421 484 34,000 50 Climbing Cleveland Center
07:39AM 41.2442 -83.8475 269° West 421 484 34,000 -35 Level Cleveland Center
07:41AM 41.2425 -84.1458 270° West 414 476 33,900 -35 Descending Chicago Center
07:42AM 41.2411 -84.3003 269° West 418 481 33,900 49 Level Chicago Center
07:43AM 41.2453 -84.4528 272° West 416 479 34,000 49 Climbing Chicago Center
07:44AM 41.2500 -84.6061 272° West 415 478 34,000 -49 Level Chicago Center
07:45AM 41.2558 -84.7578 273° West 413 475 33,900 -49 Descending Chicago Center
07:46AM 41.2844 -84.9344 282° West 409 471 33,900 49 Level Chicago Center
07:47AM 41.3075 -85.0825 282° West 408 470 34,000  Climbing Chicago Center
07:48AM 41.3269 -85.2325 280° West 409 471 33,900 -344 Descending Chicago Center
07:49AM 41.3464 -85.3789 280° West 403 464 33,300 -1,707 Descending Chicago Center
07:50AM 41.3667 -85.5269 280° West 402 463 30,400 -2,927 Descending Chicago Center
07:51AM 41.3872 -85.6844 280° West 426 490 27,300 -2,213 Descending Chicago Center
07:52AM 41.4061 -85.8353 280° West 417 480 25,900 -1,122 Descending Chicago Center
07:53AM 41.4253 -85.9839 280° West 408 470 25,000 -488 Descending Chicago Center
07:54AM 41.4444 -86.1289 280° West 400 460 24,900 -732 Descending Chicago Center
07:55AM 41.4631 -86.2764 280° West 403 464 23,500 -1,317 Descending Chicago Center
07:56AM 41.4819 -86.4144 280° West 377 434 22,200 -1,366 Descending Chicago Center
07:57AM 41.4958 -86.5428 278° West 356 410 20,700 -1,073 Descending Chicago Center
07:58AM 41.5158 -86.6903 280° West 339 390 20,000 -780 Descending Chicago Center
07:59AM 41.5292 -86.8111 278° West 342 394 19,100 -1,512 Descending Chicago Center
08:00AM 41.5447 -86.9394 279° West 349 402 16,900 -2,098 Descending Chicago Center
08:01AM 41.5608 -87.0661 280° West 347 399 14,800 -2,333 Descending Chicago Center
08:02AM 41.5667 -87.1833 274° West 331 381 12,700 -1,585 Descending Chicago TRACON
08:03AM 41.6000 -87.2833 294° West 331 381 12,000 -500 Descending Chicago TRACON
08:04AM 41.6667 -87.3833 312° West 337 388 11,700 -615 Descending Chicago TRACON
08:04AM 41.6828 -87.4089 310° West 338 389 11,200 -1,367 Descending Chicago Center
08:05AM 41.7403 -87.5006 310° West 328 377 9,900 -829 Descending Chicago Center
08:06AM 41.7900 -87.5831 309° West 288 331 9,500 -891 Descending Chicago Center
08:07AM 41.8167 -87.6500 298° West 267 307 8,400 -1,080 Descending Chicago TRACON
08:08AM 41.8167 -87.7333 270° West 220 253 7,700 -694 Descending Chicago TRACON
08:09AM 41.8167 -87.8000 270° West 198 228 7,000 -350 Descending Chicago TRACON
08:10AM 41.8167 -87.8667 270° West 174 200 7,000  Level Chicago TRACON
08:10AM 41.8103 -87.8894 249° West 177 204 7,000  Level Chicago Center
08:11AM 41.7850 -87.9428 238° Southwest 173 199 7,000  Level Chicago Center
08:12AM 41.7450 -87.9767 212° Southwest 171 197 7,000  Level Chicago Center
08:13AM 41.7050 -88.0122 214° Southwest 172 198 7,000  Level Chicago Center
08:14AM 41.6689 -88.0508 219° Southwest 174 200 7,000 -244 Level Chicago Center
08:15AM 41.7014 -88.1036 310° West 187 215 6,500 -878 Descending Chicago Center
08:16AM 41.7697 -88.0956 North 211 243 5,200 -878 Descending Chicago Center
08:17AM 41.8183 -88.0575 30° Northeast 212 244 4,700 -683 Descending Chicago Center
08:18AM 41.8592 -88.0100 41° Northeast 203 234 3,800 -488 Descending Chicago Center
08:19AM 41.8883 -87.9706 45° Northeast 178 205 3,700 145 Descending Chicago Center
08:20AM 41.8833 -87.9333 100° East 200 230 4,000 290 Climbing Chicago TRACON
08:20AM 41.8600 -87.9036 137° Southeast 202 232 4,000  Level Chicago Center
08:21AM 41.8131 -87.9294 202° Southwest 189 217 4,000  Level Chicago Center
08:23AM 41.7661 -87.9606 206° Southwest 187 215 4,000 244 Level Chicago Center
08:24AM 41.7178 -88.0103 218° Southwest 185 213 4,500 488 Climbing Chicago Center
08:25AM 41.6908 -88.0500 228° Southwest 176 203 5,000 244 Climbing Chicago Center
08:26AM 41.7189 -88.1011 306° West 175 201 5,000  Level Chicago Center
08:27AM 41.7614 -88.1192 342° North 183 211 5,000 -146 Level Chicago Center
08:28AM 41.7978 -88.0822 37° Northeast 172 198 4,700 -585 Descending Chicago Center
08:29AM 41.8317 -88.0433 41° Northeast 165 190 3,800 -871 Descending Chicago Center